Regional Weather Roundup
Issued by NWS

Home | Current Version | Previous Version | Graphics & Text | Print | Product List | Glossary On
Versions: 1 2 3 4 5 6 7 8 9 10 11 12 13 14 15 16 17 18 19 20 21 22 23 24 25 26 27 28 29 30 31 32 33 34 35 36 37 38 39 40 41 42 43 44 45 46 47 48 49 50
000
ASUS45 KCYS 311810
RWRWY

WYOMING REGIONAL WEATHER ROUNDUP
NATIONAL WEATHER SERVICE CHEYENNE WY
1200 PM MDT TUE MAR 31 2015

NOTE:  "FAIR" INDICATES FEW OR NO CLOUDS BELOW 12,000 FEET
WITH NO SIGNIFICANT WEATHER AND/OR OBSTRUCTIONS TO VISIBILITY.

WYZ001-311900-
YELLOWSTONE NATIONAL PARK

CITY           SKY/WX    TMP DP  RH WIND       PRES   REMARKS
LK YELLOWSTONE   N/A     44  19  36 VRB3      30.01F
6HR MIN TEMP:  22; 6HR MAX TEMP:  46;

W YELLOWSTONE  NOT AVBL

$$
WYZ002>013-054>058-071-098>099-311900-
NORTHERN WYOMING

CITY           SKY/WX    TMP DP  RH WIND       PRES   REMARKS
JACKSON        SUNNY     46  23  39 CALM      29.99F
CODY           FAIR      61  23  23 E10       29.86F
GREYBULL       FAIR      63  26  24 CALM      29.85F
6HR MIN TEMP:  36; 6HR MAX TEMP:  63;

WORLAND        FAIR      59  32  36 CALM      29.86F
6HR MIN TEMP:  30; 6HR MAX TEMP:  59;

SHERIDAN       FAIR      74  17  11 CALM      29.80F
6HR MIN TEMP:  38; 6HR MAX TEMP:  76;

BUFFALO        FAIR      70  16  12 SE10G16   29.86F
6HR MIN TEMP:  48; 6HR MAX TEMP:  72;

GILLETTE       FAIR      72  20  14 SW13      29.86F
6HR MIN TEMP:  47; 6HR MAX TEMP:  72;

HULETT         FAIR      70  23  17 S14       29.87F
NEWCASTLE      FAIR      64  21  19 S9        29.92F

$$
WYZ014>020-022>026-101>103-311900-
CENTRAL WYOMING

CITY           SKY/WX    TMP DP  RH WIND       PRES   REMARKS
BIG PINEY      FAIR      53  17  24 VRB5      30.05F
6HR MIN TEMP:  18; 6HR MAX TEMP:  53;

PINEDALE       FAIR      59  18  20 SE8       30.05F
DUBOIS         FAIR      59  10  14 W16G26    29.97F
LANDER         FAIR      60  21  22 VRB3      29.93F
6HR MIN TEMP:  38; 6HR MAX TEMP:  60;

RIVERTON       FAIR      60  19  20 VRB3      29.95F
6HR MIN TEMP:  34; 6HR MAX TEMP:  60;

CASPER         FAIR      67  16  14 SW16G25   29.96F
6HR MIN TEMP:  35; 6HR MAX TEMP:  68;

DOUGLAS        FAIR      67  22  18 W6        29.95F
6HR MIN TEMP:  25; 6HR MAX TEMP:  67;


$$
WYZ021-027>030-104>119-311900-
SOUTHERN WYOMING

CITY           SKY/WX    TMP DP  RH WIND       PRES   REMARKS
EVANSTON       FAIR      65  18  16 SW22G33   30.05F
6HR MIN TEMP:  38; 6HR MAX TEMP:  65;

KEMMERER       FAIR      61  18  18 S12       30.06F
FORT BRIDGER   FAIR      64  20  18 NW5       30.08F
ROCK SPRINGS   FAIR      61  14  16 SW7       30.05F
6HR MIN TEMP:  30; 6HR MAX TEMP:  62;

DIXON          FAIR      66  20  16 W13G25    30.11F
RAWLINS        FAIR      64  11  12 SW16G28   30.06F
6HR MIN TEMP:  24; 6HR MAX TEMP:  65;

SARATOGA       FAIR      64  12  13 W20G28    30.09F
LARAMIE        FAIR      64   9  11 W21       30.07F
6HR MIN TEMP:  26; 6HR MAX TEMP:  64;

CHEYENNE       FAIR      67  15  13 S14G22    30.03F
6HR MIN TEMP:  37; 6HR MAX TEMP:  68;

TORRINGTON     FAIR      70  21  15 S7        29.94F
6HR MIN TEMP:  28; 6HR MAX TEMP:  70;

PINE BLUFFS    FAIR      70  18  13 SW8       30.01F

$$



USA.gov is the U.S. government's official web portal to all federal, state and local government web resources and services.